Flag for Vietnam Weather past 2 weeks in Da Nang, Vietnam

Now
82 °F

Fog.


Feels Like: 91 °F
Forecast: 81 / 94 °F
Wind: 3 mph from South

Location: Da Nang Airport

Current Time: Apr 20, 2015 at 4:31:15 AM

Latest Report: Apr 20, 2015 at 4:00 AM


Visibility: 3 mi

Pressure: 29.74 "Hg

Humidity: 84%

Dew point: 77 °F

Location of Da NangLocation

Historic Weather in Da Nang — Graph

°F

Da Nang temperature yesterday

Maximum temperature yesterday: 93 °F (at 9:30 AM)
Minimum temperature yesterday: 79 °F (at 4:00 AM)
Average temperature yesterday: 85 °F

Past Weeks' High & Low Weather Summary

 TemperatureHumidityPressure
High93 °F (Apr 19, 9:30 AM)100% (Apr 6, 12:00 AM)30.12 "Hg (Apr 6, 12:00 AM)
Low66 °F (Apr 14, 3:00 AM)51% (Apr 14, 2:00 PM)29.68 "Hg (Apr 18, 4:00 PM)
Average80 °F81%29.92 "Hg
* Reported Apr 5 3:00 AM — Apr 20 3:00 AM, Da Nang, Weather by CustomWeather, © 2015

Note: Actual official high and low records may vary slightly from our data, if they occured in-between our weather recording intervals... More about our weather records

Advertising

Da Nang weather history for previous 24 hours

 ConditionsComfort  
Time TempWeatherWind HumidityBarometerVisibility
3:00 AM
Mon, Apr 20
81 °FFog.2 mph94%29.71 "Hg3 mi
2:00 AM82 °FFog.3 mph89%29.71 "Hg3 mi
1:30 AM82 °FFog.2 mph89%29.74 "Hg3 mi
1:00 AM82 °FFog.2 mph84%29.74 "Hg3 mi
12:30 AM82 °FFog.2 mph84%29.74 "Hg3 mi
12:00 AM82 °FFog.2 mph84%29.77 "Hg3 mi
11:30 PM
Sun, Apr 19
82 °FFog.2 mph84%29.77 "Hg3 mi
11:00 PM82 °FFog.2 mph84%29.77 "Hg3 mi
10:30 PM82 °FFog.2 mph84%29.80 "Hg3 mi
10:00 PM82 °FFog.1 mph84%29.80 "Hg3 mi
9:30 PM84 °FFog.3 mph79%29.80 "Hg3 mi
9:00 PM84 °FFog.2 mph79%29.77 "Hg3 mi
8:30 PM84 °FFog.1 mph79%29.77 "Hg3 mi
8:00 PM84 °FFog.3 mph79%29.77 "Hg3 mi
7:30 PM82 °FFog.1 mph84%29.77 "Hg3 mi
7:00 PM82 °FFog.1 mph84%29.77 "Hg3 mi
6:30 PM82 °FPassing clouds.2 mph84%29.74 "Hg4 mi
6:00 PM82 °FScattered clouds.2 mph84%29.74 "Hg4 mi
5:30 PM84 °FScattered clouds.5 mph79%29.74 "Hg4 mi
5:00 PM86 °FClear.6 mph75%29.71 "Hg4 mi
4:30 PM86 °FClear.6 mph75%29.71 "Hg4 mi
4:00 PM88 °FScattered clouds.7 mph70%29.71 "Hg4 mi
3:30 PM88 °FScattered clouds.7 mph70%29.71 "Hg4 mi
3:00 PM88 °FScattered clouds.8 mph70%29.71 "Hg4 mi
2:30 PM88 °FScattered clouds.8 mph75%29.74 "Hg4 mi
2:00 PM90 °FScattered clouds.8 mph71%29.74 "Hg4 mi
1:30 PM90 °FScattered clouds.6 mph71%29.74 "Hg4 mi
1:00 PM91 °FScattered clouds.7 mph67%29.74 "Hg4 mi
12:30 PM91 °FScattered clouds.8 mph67%29.77 "Hg4 mi
12:00 PM91 °FFog.8 mph67%29.77 "Hg3 mi
11:30 AM91 °FFog.7 mph67%29.80 "Hg3 mi
11:00 AM90 °FFog.8 mph71%29.80 "Hg3 mi
10:30 AM90 °FFog.8 mph71%29.80 "Hg3 mi
10:00 AM91 °FFog.6 mph67%29.80 "Hg3 mi
9:30 AM93 °FFog.3 mph63%29.80 "Hg3 mi
9:00 AM90 °FFog.5 mph71%29.80 "Hg3 mi
8:30 AM88 °FFog.3 mph70%29.80 "Hg3 mi
8:00 AM84 °FFog.3 mph79%29.80 "Hg3 mi
7:30 AM84 °FFog.1 mph79%29.80 "Hg3 mi
7:00 AM82 °FFog.2 mph84%29.80 "Hg3 mi
6:00 AM81 °FFog.1 mph89%29.77 "Hg2 mi
5:30 AM81 °FFog.2 mph89%29.74 "Hg2 mi
5:00 AM81 °FFog.2 mph89%29.74 "Hg2 mi
4:30 AM81 °FFog.3 mph89%29.74 "Hg2 mi
4:00 AM79 °FFog.1 mph94%29.74 "Hg2 mi
Weather by CustomWeather, © 2015

See weather overviewHow to use our weather pages